Wind_Speed
45 45 45 44 44 45 45 45 46 46 47 48 48 49 49 49 50 50 50 50 51 52 52 52 52 52 52 51 51 51 51 52 51 49 49 50 49 49 49 50 50 50 50
47 47 46 46 45 46 46 46 46 46 47 48 49 49 50 50 51 51 51 52 52 53 53 53 53 53 53 53 52 52 52 52 53 51 50 50 51 51 50 51 51 51 51
48 48 48 49 48 48 48 49 48 47 47 48 49 50 50 51 52 53 53 53 53 54 54 54 54 54 54 54 54 54 53 53 54 54 52 52 52 52 52 52 52 53 53
49 50 50 50 50 50 50 50 49 49 49 49 49 50 51 52 52 53 54 54 55 55 55 56 56 56 56 56 56 55 55 55 55 55 55 55 55 54 54 53 54 54 55
49 50 51 51 51 51 51 51 51 51 51 52 52 52 52 52 53 54 54 55 55 56 56 57 57 57 57 57 57 56 56 56 56 56 56 57 57 56 55 55 55 55 56
50 51 51 51 52 52 52 52 53 53 53 53 53 53 53 53 53 53 54 55 56 56 56 57 57 57 58 58 57 57 57 57 57 57 56 57 58 57 57 56 56 56 56
49 50 51 51 52 52 52 53 53 53 54 54 54 54 53 53 54 54 54 55 55 56 56 57 56 57 58 57 57 57 57 57 58 58 57 57 57 58 58 57 57 57 56
48 48 49 50 50 51 52 52 52 52 53 53 53 53 53 53 54 55 55 56 56 56 57 56 57 56 56 57 57 57 57 57 58 59 58 58 57 57 58 58 57 57 56
46 47 47 49 49 50 50 50 50 51 52 53 53 53 53 54 54 55 55 56 56 56 57 57 57 57 58 59 59 59 59 59 60 60 59 59 58 58 58 58 57 57 56
44 45 46 47 48 49 48 47 49 50 51 52 53 53 54 54 55 55 55 55 55 56 56 57 57 58 59 59 59 59 59 59 59 60 60 59 60 59 59 58 58 58 58
43 44 45 46 46 47 48 47 48 49 50 52 52 53 54 54 54 54 55 55 55 54 55 56 56 57 57 58 58 59 58 59 60 60 60 60 60 60 60 59 59 59 58
42 42 43 44 45 46 48 48 49 49 50 51 51 52 53 53 53 54 55 55 55 55 54 55 55 56 57 57 57 57 57 58 58 59 60 60 60 60 60 59 59 59 58
41 41 42 42 44 45 46 48 49 50 50 50 50 51 52 52 53 53 54 55 55 55 55 55 56 56 57 57 56 56 57 57 57 58 59 59 59 60 60 59 59 59 58
41 41 42 43 43 44 46 47 49 50 50 49 50 50 50 51 52 52 53 54 55 55 55 55 56 56 57 57 56 56 57 57 57 58 58 58 59 59 59 59 59 59 59
41 42 42 42 43 43 44 46 48 49 49 49 49 50 50 50 50 51 51 52 53 53 54 54 54 55 55 56 55 55 55 56 56 56 57 57 57 57 57 57 58 58 57
41 41 41 42 43 43 43 44 45 46 46 48 48 48 48 49 49 50 50 50 51 51 52 52 52 53 52 52 52 53 53 53 54 53 53 53 53 53 53 54 55 55 55
40 40 41 41 42 42 43 43 43 44 44 45 46 46 47 47 47 48 48 48 47 48 48 48 49 50 50 50 50 50 51 51 51 51 51 51 51 51 51 52 52 53 53
38 39 39 40 41 41 42 42 43 43 43 44 44 45 45 45 45 45 45 45 45 45 46 46 46 47 48 48 48 48 49 49 49 49 49 49 49 50 50 50 50 50 51
38 39 39 39 39 40 40 40 41 42 42 43 43 43 43 43 43 42 43 43 44 44 45 45 46 46 46 47 46 46 46 46 47 47 48 48 48 49 49 49 50 50 50
38 38 39 39 38 38 38 38 39 39 40 40 40 40 41 41 40 40 41 42 42 42 43 44 44 44 44 45 45 45 45 45 45 45 45 46 47 47 48 48 48 48 48
37 37 37 37 37 37 37 37 36 36 36 37 37 37 38 38 38 39 39 39 40 41 42 42 42 42 43 43 43 44 44 44 44 44 44 44 44 45 47 47 47 47 47
35 35 36 36 35 35 34 34 35 35 35 35 35 36 37 37 38 38 38 39 39 40 40 41 41 41 41 41 41 42 42 43 43 44 44 44 43 44 45 46 46 46 46
34 34 35 35 34 33 33 34 34 34 34 34 34 34 35 35 36 36 36 37 37 37 37 38 38 39 39 39 40 40 41 41 42 42 42 42 43 43 43 44 45 45 45
33 33 33 33 33 33 33 33 33 32 33 33 33 33 34 34 34 35 35 35 35 35 35 36 36 37 37 38 39 39 40 40 40 40 40 40 41 41 41 41 42 43 42
32 32 32 32 32 32 32 32 32 32 32 32 32 33 33 33 33 34 34 34 34 34 35 35 36 36 36 36 36 37 37 37 38 37 37 37 38 39 38 38 38 39 38
31 31 31 31 31 31 31 31 31 32 31 31 32 32 32 32 32 32 33 33 33 33 33 33 34 34 34 34 34 34 34 34 34 34 34 35 35 36 36 35 36 36 36
Wind_Direction
263 262 262 263 264 263 262 261 261 261 261 261 262 262 261 260 260 260 260 260 260 261 261 261 261 260 260 261 261 261 263 262 261 260 259 259 260 260 261 262 263 263 264
263 263 263 263 264 263 263 263 262 262 262 262 262 262 262 261 260 261 261 260 261 261 261 261 261 261 261 262 261 262 263 263 262 261 260 260 260 260 261 262 263 263 264
263 263 264 264 264 264 263 263 263 263 263 263 263 263 263 262 261 261 261 261 261 261 261 261 261 261 261 262 262 262 262 263 263 262 260 260 261 262 262 262 263 264 265
263 263 264 263 263 264 264 264 264 264 264 264 264 264 264 264 262 262 262 262 262 261 261 261 260 260 260 261 261 261 262 262 262 263 262 260 261 262 263 263 263 264 265
264 264 264 263 263 264 263 263 264 265 265 265 265 265 265 265 264 263 262 262 262 262 261 261 260 260 260 260 260 260 261 262 262 263 263 261 261 262 263 264 264 264 265
267 265 265 264 264 264 264 263 264 265 265 265 266 266 265 265 264 264 264 263 262 262 262 261 261 261 260 260 259 260 261 261 262 263 263 262 262 262 262 263 264 265 266
269 268 265 264 264 264 264 264 264 265 265 265 266 266 266 265 265 264 264 263 263 262 262 261 261 262 261 260 260 260 260 261 262 262 263 263 262 262 262 262 264 265 266
269 269 266 265 265 265 266 265 264 264 264 265 265 265 265 265 265 264 264 263 262 262 261 261 261 261 261 261 260 260 260 261 262 262 262 262 262 263 263 264 264 265 266
271 269 267 266 266 266 267 265 264 264 265 266 265 265 265 265 266 266 265 264 263 262 261 261 261 261 262 262 261 261 261 261 261 262 262 262 262 262 263 264 264 266 266
272 270 268 268 267 267 266 266 265 265 266 267 267 266 266 266 266 266 265 264 263 262 261 261 261 262 263 263 263 262 262 262 262 263 262 262 261 261 262 263 265 266 266
274 273 271 269 268 267 267 267 267 267 267 268 268 267 267 267 267 266 265 264 263 262 262 262 262 262 262 263 263 262 262 261 262 262 262 262 262 262 262 263 265 266 266
275 274 273 271 270 269 269 269 269 269 269 269 269 268 267 267 267 266 265 264 263 262 262 262 262 262 262 262 263 262 262 262 262 261 261 262 262 262 262 263 264 265 266
274 273 273 272 272 271 270 270 270 271 272 270 269 269 269 268 268 266 266 265 265 264 263 262 262 262 262 262 262 262 261 262 262 262 262 263 262 262 262 262 263 264 265
274 273 273 273 273 273 272 272 272 272 272 271 269 270 269 269 268 267 267 266 266 265 264 263 263 263 263 263 262 262 262 262 263 262 262 262 262 262 261 262 263 263 263
275 274 274 273 273 273 274 274 274 273 272 272 272 272 271 270 269 269 268 268 267 266 265 264 263 262 262 263 263 262 262 262 262 262 262 262 262 262 262 262 262 262 262
275 275 274 274 274 274 275 275 275 274 274 274 274 273 271 271 270 270 269 268 268 267 266 264 263 262 262 262 263 262 261 262 262 262 262 262 262 261 260 260 261 261 262
275 275 275 275 275 275 274 275 275 275 274 274 273 273 273 271 270 270 269 268 267 266 265 264 263 262 261 262 263 262 261 262 262 262 262 262 261 260 260 260 261 261 262
277 276 276 276 276 276 275 275 275 274 273 274 274 274 274 273 272 270 268 267 266 266 265 264 264 263 263 263 263 262 261 262 262 262 262 262 261 260 260 260 261 261 262
278 278 277 277 277 277 277 276 276 276 275 275 274 274 273 273 272 270 268 267 266 266 265 264 264 264 264 263 261 261 261 261 262 262 262 262 262 260 260 260 261 262 262
279 279 279 278 278 277 277 277 277 276 275 273 273 273 273 273 272 271 270 268 266 266 265 265 265 264 263 262 260 260 260 261 261 262 262 262 261 261 261 260 261 262 263
280 279 279 279 279 279 278 277 277 276 275 274 273 273 273 274 273 272 272 270 269 267 266 265 265 264 262 261 260 260 260 261 261 262 262 262 262 261 260 260 261 262 263
282 281 280 280 280 279 278 278 279 278 276 276 276 276 276 275 274 274 272 271 270 270 268 266 264 263 262 261 261 261 261 261 262 263 263 262 262 262 261 261 262 263 263
284 283 282 281 280 280 279 279 280 279 277 277 277 277 277 277 276 275 274 273 272 271 269 267 264 263 262 262 261 261 261 262 264 265 264 262 262 262 262 262 262 262 262
286 285 284 282 282 281 279 278 278 279 279 279 279 279 278 278 278 277 276 275 273 272 270 268 266 264 264 263 263 263 263 263 264 265 264 263 263 262 263 263 263 262 261
286 286 285 284 283 281 280 280 279 279 280 280 280 280 279 279 278 278 277 276 275 273 271 270 268 266 265 264 264 264 264 264 264 264 263 263 261 260 261 262 261 261 261
287 286 286 285 284 283 282 281 281 282 282 282 281 281 280 279 279 279 278 277 276 274 272 270 268 266 265 264 263 263 263 263 263 262 262 262 261 260 260 260 260 261 261
Height
5619 5620 5621 5622 5623 5624 5625 5626 5627 5629 5630 5631 5632 5634 5635 5636 5638 5640 5641 5643 5645 5646 5648 5650 5652 5653 5655 5657 5659 5661 5662 5664 5666 5669 5670 5672 5674 5676 5678 5680 5681 5682 5684
5606 5607 5608 5609 5610 5611 5612 5613 5614 5615 5617 5618 5619 5620 5621 5622 5624 5625 5627 5629 5631 5632 5634 5635 5637 5639 5641 5643 5645 5647 5648 5649 5651 5654 5656 5658 5660 5662 5664 5666 5667 5668 5670
5593 5594 5595 5596 5597 5598 5599 5600 5601 5602 5603 5604 5605 5606 5607 5608 5609 5611 5612 5614 5616 5617 5619 5621 5622 5624 5626 5628 5630 5632 5634 5635 5637 5639 5642 5643 5645 5647 5649 5651 5652 5654 5655
5579 5580 5581 5582 5583 5584 5585 5586 5587 5588 5589 5590 5590 5591 5592 5593 5594 5595 5597 5599 5600 5602 5603 5605 5607 5609 5611 5612 5614 5616 5618 5620 5622 5623 5626 5628 5630 5632 5634 5636 5637 5639 5640
5564 5565 5566 5567 5568 5569 5570 5571 5572 5573 5574 5575 5576 5576 5577 5578 5579 5580 5581 5583 5584 5586 5587 5589 5590 5592 5594 5596 5598 5600 5602 5604 5606 5608 5610 5612 5615 5616 5618 5620 5621 5623 5624
5550 5550 5550 5551 5552 5554 5555 5556 5557 5558 5558 5559 5560 5561 5561 5562 5563 5565 5566 5567 5568 5570 5571 5572 5574 5576 5578 5580 5582 5584 5586 5588 5590 5592 5594 5596 5598 5600 5602 5603 5605 5607 5609
5535 5535 5535 5536 5537 5538 5539 5540 5541 5542 5543 5544 5544 5545 5546 5547 5548 5549 5550 5551 5552 5554 5555 5556 5558 5560 5561 5563 5565 5567 5569 5571 5574 5576 5577 5579 5581 5583 5585 5587 5588 5589 5592
5521 5521 5521 5521 5522 5523 5524 5524 5525 5526 5527 5528 5529 5530 5530 5531 5532 5532 5533 5534 5536 5537 5539 5540 5542 5543 5545 5547 5549 5551 5553 5555 5557 5559 5562 5563 5564 5565 5567 5570 5571 5573 5575
5507 5507 5507 5507 5507 5508 5509 5509 5510 5511 5511 5512 5513 5514 5514 5515 5516 5516 5517 5518 5519 5521 5522 5524 5525 5527 5529 5530 5532 5535 5537 5538 5539 5542 5544 5545 5547 5549 5550 5552 5554 5555 5558
5494 5493 5493 5493 5493 5494 5494 5495 5495 5496 5496 5497 5497 5497 5498 5499 5499 5500 5500 5501 5503 5504 5506 5507 5508 5510 5511 5512 5514 5517 5519 5521 5522 5524 5526 5528 5529 5531 5533 5535 5537 5538 5540
5480 5480 5479 5479 5479 5480 5480 5480 5481 5481 5481 5481 5481 5482 5482 5482 5482 5482 5483 5484 5485 5487 5488 5490 5491 5493 5494 5495 5497 5499 5501 5503 5505 5507 5508 5510 5512 5514 5516 5518 5519 5520 5522
5467 5467 5466 5466 5465 5466 5466 5466 5466 5466 5466 5466 5465 5465 5465 5465 5465 5465 5465 5466 5467 5469 5471 5473 5474 5475 5476 5477 5479 5481 5483 5484 5486 5488 5491 5493 5495 5497 5499 5500 5502 5502 5504
5454 5454 5453 5452 5452 5452 5451 5451 5451 5451 5450 5450 5450 5449 5449 5449 5448 5449 5448 5449 5449 5451 5453 5455 5456 5457 5458 5460 5462 5463 5464 5466 5468 5471 5473 5475 5477 5479 5481 5482 5484 5485 5487
5441 5441 5440 5439 5439 5438 5437 5437 5436 5436 5435 5435 5434 5433 5433 5432 5432 5432 5432 5432 5433 5434 5435 5437 5438 5439 5441 5443 5444 5446 5447 5449 5451 5453 5455 5457 5459 5461 5463 5465 5467 5468 5470
5428 5427 5427 5426 5425 5424 5423 5422 5421 5421 5419 5419 5418 5417 5417 5417 5416 5416 5416 5416 5416 5417 5418 5419 5420 5422 5424 5425 5427 5428 5430 5432 5433 5435 5437 5439 5441 5443 5445 5447 5449 5450 5452
5416 5415 5414 5413 5412 5411 5410 5409 5406 5406 5405 5403 5402 5402 5401 5401 5401 5400 5400 5400 5400 5400 5401 5402 5404 5405 5407 5409 5410 5412 5413 5415 5416 5418 5420 5422 5424 5426 5428 5430 5432 5434 5436
5403 5402 5401 5399 5398 5397 5396 5395 5394 5392 5390 5389 5388 5387 5386 5386 5385 5385 5385 5384 5384 5384 5385 5386 5388 5389 5391 5392 5394 5396 5398 5399 5400 5402 5404 5406 5407 5409 5411 5413 5415 5417 5419
5390 5389 5388 5386 5385 5383 5382 5381 5379 5378 5377 5375 5374 5372 5372 5371 5371 5370 5370 5370 5370 5370 5370 5371 5373 5374 5375 5377 5378 5380 5382 5384 5385 5387 5388 5390 5392 5394 5396 5398 5400 5402 5404
5378 5376 5375 5373 5372 5370 5369 5367 5366 5364 5363 5362 5360 5359 5358 5357 5356 5356 5355 5356 5356 5356 5356 5357 5358 5359 5360 5362 5363 5365 5367 5369 5370 5372 5373 5375 5376 5378 5381 5383 5384 5386 5388
5365 5363 5362 5361 5359 5357 5355 5354 5352 5351 5349 5348 5347 5346 5345 5344 5343 5343 5342 5342 5342 5342 5342 5343 5344 5345 5346 5347 5349 5350 5352 5354 5356 5357 5359 5360 5362 5363 5366 5368 5369 5371 5373
5353 5351 5349 5348 5346 5344 5343 5341 5340 5338 5337 5335 5334 5333 5332 5331 5330 5330 5329 5329 5328 5329 5329 5329 5330 5331 5332 5333 5335 5336 5338 5340 5341 5343 5344 5346 5347 5349 5351 5353 5354 5356 5358
5341 5339 5337 5336 5334 5332 5331 5329 5328 5326 5325 5323 5322 5321 5319 5319 5318 5317 5316 5316 5315 5315 5315 5316 5316 5317 5318 5320 5321 5323 5324 5326 5327 5328 5330 5331 5333 5334 5336 5338 5340 5342 5343
5330 5328 5326 5324 5322 5321 5319 5318 5316 5315 5313 5312 5310 5309 5308 5306 5305 5304 5304 5303 5303 5302 5302 5303 5303 5304 5305 5306 5308 5309 5311 5312 5313 5314 5316 5317 5319 5320 5322 5323 5325 5327 5329
5319 5317 5315 5313 5311 5310 5308 5307 5305 5303 5302 5301 5299 5298 5296 5295 5294 5293 5292 5291 5290 5290 5290 5290 5291 5292 5293 5294 5295 5296 5298 5299 5300 5301 5302 5303 5305 5306 5308 5310 5311 5313 5315
5308 5306 5304 5302 5301 5299 5297 5295 5294 5292 5291 5289 5288 5286 5285 5283 5282 5281 5280 5279 5279 5278 5278 5278 5279 5280 5280 5281 5282 5284 5285 5286 5287 5288 5289 5291 5292 5294 5296 5297 5299 5300 5302
5298 5296 5294 5292 5290 5288 5286 5285 5283 5282 5280 5278 5277 5275 5274 5272 5271 5270 5269 5268 5267 5267 5267 5266 5267 5267 5268 5269 5271 5272 5273 5274 5275 5276 5278 5279 5281 5282 5283 5285 5287 5288 5290